This is the latest recevied weather packets stored in our database for station/object IZ2MHJ-3. If no packets are shown the sender has not sent any weather packets the latest 10 day(s).
| Time | Temp. | Humidity | Pressure | Rain* | Wind** | Luminosity | Snow |
|---|---|---|---|---|---|---|---|
| 1777609822 | 10.56° C | 59% | 1029.3 hPa | - | - | - | - |
| 1777608621 | 10.56° C | 60% | 1029.2 hPa | - | - | - | - |
| 1777607421 | 10° C | 61% | 1029 hPa | - | - | - | - |
| 1777606221 | 10° C | 59% | 1028.9 hPa | - | - | - | - |
| 1777605021 | 10° C | 59% | 1028.9 hPa | - | - | - | - |
| 1777603820 | 10.56° C | 62% | 1028.9 hPa | - | - | - | - |
| 1777602620 | 11.11° C | 59% | 1028.8 hPa | - | - | - | - |
| 1777601419 | 11.11° C | 59% | 1028.9 hPa | - | - | - | - |
| 1777600219 | 11.11° C | 60% | 1029 hPa | - | - | - | - |
| 1777599019 | 11.11° C | 56% | 1028.8 hPa | - | - | - | - |
| 1777597819 | 11.11° C | 57% | 1028.7 hPa | - | - | - | - |
| 1777596618 | 11.11° C | 55% | 1028.8 hPa | - | - | - | - |
| 1777595418 | 11.67° C | 52% | 1028.7 hPa | - | - | - | - |
| 1777594218 | 12.22° C | 45% | 1028.6 hPa | - | - | - | - |
| 1777593017 | 12.22° C | 43% | 1028.5 hPa | - | - | - | - |
| 1777591817 | 12.78° C | 42% | 1028.4 hPa | - | - | - | - |
| 1777590617 | 12.78° C | 43% | 1028.4 hPa | - | - | - | - |
| 1777589417 | 13.33° C | 43% | 1028.4 hPa | - | - | - | - |
| 1777588216 | 13.33° C | 44% | 1028.3 hPa | - | - | - | - |
| 1777587016 | 13.33° C | 44% | 1028.1 hPa | - | - | - | - |
| 1777585816 | 13.33° C | 45% | 1027.9 hPa | - | - | - | - |
| 1777584615 | 13.33° C | 46% | 1027.8 hPa | - | - | - | - |
| 1777583415 | 13.33° C | 46% | 1027.6 hPa | - | - | - | - |
| 1777582215 | 13.89° C | 49% | 1027.5 hPa | - | - | - | - |
| 1777581014 | 13.89° C | 50% | 1027.4 hPa | - | - | - | - |
* Rain since midnight (hover to see other rain measurements)
** Current wind speed in m/s (hover to see current wind gust speed)